Weather History for KENW - December, 2011

Change the Weather History Date:

Monday, December 5, 2011

  Actual Average (KUGN) Record (KUGN)
Temperature  
Mean Temperature 35 °F -  
Max Temperature 37 °F 37 °F 69 °F (2001)
Min Temperature 33 °F 23 °F 2 °F (2007)
Degree Days  
Heating Degree Days 30 35  
Month to date heating degree days 171  
Since 1 July heating degree days 1556  
Cooling Degree Days 0 0  
Month to date cooling degree days 0  
Year to date cooling degree days 564  
Moisture  
Dew Point 31 °F    
Average Humidity 86    
Maximum Humidity 93    
Minimum Humidity 75    
Precipitation  
Precipitation 0.08 in 0.08 in 0.68 in (1999)
Month to date precipitation 0.42  
Year to date precipitation 34.01  
Sea Level Pressure  
Sea Level Pressure 30.29 in    
Wind  
Wind Speed 7 mph (North)    
Max Wind Speed 14 mph    
Max Gust Speed 20 mph    
Visibility 5 miles    
Events Fog , Rain , Snow    
T = Trace of Precipitation, MM = Missing Value Source: NWS Daily Summary

Daily Weather History Graph

Daily Weather History Graph

Search for Another Location

Airport or City:

Trip Planner

Search our weather history database for the weather conditions in past years. The results will help you decide how hot, cold, wet, or windy it might be!

Date:

Astronomy

Dec. 05, 2011 Rise Set
Actual Time 7:05 AM CST 4:18 PM CST
Civil Twilight 6:34 AM CST 4:50 PM CST
Nautical Twilight 5:58 AM CST 5:25 PM CST
Astronomical Twilight 5:24 AM CST 5:59 PM CST
Moon 1:19 PM CST (12/5) 2:22 AM CST (12/5)
Length of Visible Light 10h 16m
Length of Day
9h 12m
Waxing Gibbous, 80% of the Moon is Illuminated
Dec 5
Waxing Gibbous
Dec 10
Full
Dec 17
Last Quarter
Dec 24
New
Jan 1
First Quarter

Hourly Weather History & Observations

Time (CST) Temp. Windchill Dew Point Humidity Pressure Visibility Wind Dir Wind Speed Gust Speed Precip Events Conditions
12:53 AM 33.1 °F 28.7 °F 28.9 °F 85% 30.25 in 5.0 mi NW 4.6 mph - N/A   Overcast
1:53 AM 33.1 °F 30.0 °F 28.0 °F 82% 30.26 in 6.0 mi NW 3.5 mph - N/A   Haze
2:53 AM 34.0 °F 29.8 °F 28.9 °F 82% 30.26 in 6.0 mi North 4.6 mph - N/A   Haze
3:53 AM 34.0 °F 29.8 °F 28.9 °F 82% 30.27 in 7.0 mi NW 4.6 mph - N/A   Overcast
4:14 AM 33.8 °F 28.6 °F 28.4 °F 81% 30.24 in 7.0 mi NNW 5.8 mph - N/A   Overcast
4:53 AM 34.0 °F 28.0 °F 28.0 °F 79% 30.28 in 8.0 mi NW 6.9 mph - N/A   Overcast
5:24 AM 33.8 °F 29.6 °F 28.4 °F 81% 30.27 in 9.0 mi NNW 4.6 mph - N/A   Overcast
5:44 AM 33.8 °F 28.6 °F 28.4 °F 81% 30.27 in 9.0 mi NW 5.8 mph - N/A   Overcast
5:53 AM 34.0 °F 29.8 °F 28.0 °F 79% 30.30 in 8.0 mi NW 4.6 mph - N/A   Overcast
6:36 AM 33.8 °F 28.6 °F 28.4 °F 81% 30.28 in 7.0 mi NW 5.8 mph - N/A   Mostly Cloudy
6:53 AM 34.0 °F 28.0 °F 28.9 °F 82% 30.30 in 6.0 mi NNW 6.9 mph - N/A   Haze
7:39 AM 33.8 °F 29.6 °F 30.2 °F 87% 30.25 in 4.0 mi NNW 4.6 mph - N/A   Overcast
7:53 AM 34.0 °F 28.0 °F 30.0 °F 85% 30.29 in 4.0 mi NNW 6.9 mph - N/A   Overcast
8:04 AM 33.8 °F 27.7 °F 30.2 °F 87% 30.27 in 3.0 mi NNW 6.9 mph - 0.00 in Snow Light Snow
8:13 AM 33.8 °F 26.4 °F 30.2 °F 87% 30.27 in 2.0 mi NNW 9.2 mph - 0.00 in Snow Light Snow
8:51 AM 35.6 °F 30.7 °F 32.0 °F 87% 30.29 in 1.8 mi NNW 5.8 mph - 0.00 in   Overcast
8:53 AM 35.1 °F 29.3 °F 32.0 °F 89% 30.32 in 1.5 mi NNW 6.9 mph - 0.01 in Snow Light Snow
9:09 AM 35.6 °F 29.9 °F 32.0 °F 87% 30.29 in 3.0 mi NNW 6.9 mph - 0.00 in   Overcast
9:37 AM 35.6 °F 28.0 °F 32.0 °F 87% 30.28 in 3.0 mi NNW 10.4 mph - 0.00 in   Mostly Cloudy
9:53 AM 36.0 °F 28.5 °F 32.0 °F 86% 30.30 in 3.0 mi NNW 10.4 mph - 0.00 in   Mostly Cloudy
10:32 AM 37.4 °F 29.8 °F 33.8 °F 87% 30.29 in 3.0 mi NNW 11.5 mph - N/A   Overcast
10:53 AM 37.0 °F 30.4 °F 33.1 °F 86% 30.31 in 3.0 mi NNW 9.2 mph - 0.01 in Rain Light Rain
11:53 AM 37.0 °F 29.8 °F 34.0 °F 89% 30.29 in 3.0 mi North 10.4 mph - 0.00 in   Overcast
12:53 PM 36.0 °F 28.0 °F 33.1 °F 89% 30.29 in 3.0 mi North 11.5 mph - 0.00 in   Mostly Cloudy
1:15 PM 35.6 °F 27.1 °F 33.8 °F 93% 30.26 in 2.0 mi North 12.7 mph - 0.00 in Snow Light Snow
1:22 PM 35.6 °F 27.5 °F 33.8 °F 93% 30.26 in 2.0 mi North 11.5 mph - 0.01 in Snow Light Snow
1:53 PM 35.1 °F 25.9 °F 33.1 °F 92% 30.27 in 4.0 mi North 13.8 mph - 0.01 in Snow Light Snow
2:50 PM 35.6 °F 28.0 °F 33.8 °F 93% 30.25 in 2.5 mi NNE 10.4 mph 19.6 mph 0.00 in Rain Light Rain
2:53 PM 36.0 °F 27.5 °F 33.1 °F 89% 30.27 in 2.0 mi NNE 12.7 mph 19.6 mph 0.00 in Rain Light Rain
3:38 PM 35.6 °F 28.0 °F 33.8 °F 93% 30.26 in 10.0 mi NNE 10.4 mph - 0.01 in   Overcast
3:53 PM 37.0 °F 30.4 °F 32.0 °F 82% 30.29 in 10.0 mi NNE 9.2 mph - 0.01 in   Overcast
4:47 PM 35.6 °F 28.6 °F 32.0 °F 87% 30.27 in 3.0 mi North 9.2 mph - 0.00 in Snow Light Snow
4:53 PM 34.0 °F 27.2 °F 30.9 °F 89% 30.30 in 3.0 mi North 8.1 mph - 0.01 in Snow Light Snow
5:09 PM 33.8 °F 26.4 °F 30.2 °F 87% 30.28 in 3.0 mi North 9.2 mph - 0.01 in Snow Light Snow
5:53 PM 35.1 °F 27.9 °F 30.9 °F 85% 30.31 in 10.0 mi NNE 9.2 mph - 0.01 in   Overcast
6:06 PM 35.6 °F 29.2 °F 30.2 °F 81% 30.29 in 10.0 mi NNW 8.1 mph - 0.01 in   Overcast
6:53 PM 34.0 °F 28.0 °F 30.9 °F 89% 30.32 in 5.0 mi North 6.9 mph - 0.01 in   Overcast
7:27 PM 33.8 °F 25.3 °F 30.2 °F 87% 30.31 in 2.0 mi NNE 11.5 mph - 0.00 in Snow Light Snow
7:53 PM 34.0 °F 25.5 °F 30.9 °F 89% 30.33 in 2.5 mi NE 11.5 mph - 0.00 in Snow Light Snow
8:07 PM 33.8 °F 27.7 °F 30.2 °F 87% 30.31 in 5.0 mi North 6.9 mph - 0.00 in Snow Light Snow
8:47 PM 33.8 °F 24.8 °F 30.2 °F 87% 30.31 in 1.5 mi NE 12.7 mph 19.6 mph 0.00 in Snow Light Snow
8:53 PM 33.1 °F 23.9 °F 30.0 °F 89% 30.34 in 0.5 mi NE 12.7 mph - 0.00 in Fog , Snow Light Snow
9:00 PM 33.8 °F 25.3 °F 30.2 °F 87% 30.31 in 0.8 mi NE 11.5 mph - 0.00 in Snow Light Snow
9:06 PM 33.8 °F 27.0 °F 30.2 °F 87% 30.32 in 2.0 mi NNE 8.1 mph - 0.01 in Snow Light Snow
9:16 PM 33.8 °F 26.4 °F 30.2 °F 87% 30.31 in 6.0 mi NNE 9.2 mph - 0.01 in   Overcast
9:51 PM 33.8 °F 25.8 °F 28.4 °F 81% 30.31 in 10.0 mi NNE 10.4 mph - 0.01 in   Overcast
9:53 PM 34.0 °F 26.6 °F 28.9 °F 82% 30.34 in 10.0 mi NNE 9.2 mph - 0.01 in   Overcast
10:53 PM 34.0 °F 25.5 °F 28.0 °F 79% 30.34 in 6.0 mi NNE 11.5 mph - 0.00 in Snow Light Snow
11:53 PM 34.0 °F 28.0 °F 27.0 °F 75% 30.34 in 10.0 mi North 6.9 mph - 0.00 in   Overcast